DW9545 Weather Reports


Display with metric or nautical units.
time (UTC)temp
F
wind
direction
speed
MPH
gust
MPH
rain 1hr
in
rain 24hr
in
rain mn
in
humidity
%
barometer
mb
20190319183100 40 313 5.0 8.0 0.00 0.00 0.00 39 1018.2
20190319181522 41 263 5.0 9.0 0.00 0.00 0.00 39 1018.3
20190319180030 41 300 5.0 14.0 0.00 0.00 0.00 38 1018.6
20190319174529 41 293 3.0 14.0 0.00 0.00 0.00 38 1018.9
20190319173015 41 297 2.0 8.0 0.00 0.00 0.00 40 1018.9
20190319171517 39 291 2.0 8.0 0.00 0.00 0.00 43 1019.0
20190319170020 38 290 2.0 7.0 0.00 0.00 0.00 44 1019.3
20190319164521 38 252 4.0 7.0 0.00 0.00 0.00 44 1019.4
20190319163013 39 303 5.0 16.0 0.00 0.00 0.00 43 1019.4
20190319161552 37 311 6.0 13.0 0.00 0.00 0.00 46 1019.5
20190319160044 37 302 3.0 8.0 0.00 0.00 0.00 46 1019.6
20190319154514 37 326 2.0 10.0 0.00 0.00 0.00 45 1019.6
20190319153003 37 310 1.0 10.0 0.00 0.00 0.00 50 1019.7
20190319151654 36 293 2.0 10.0 0.00 0.00 0.00 52 1019.8
20190319150314 35 271 2.0 10.0 0.00 0.00 0.00 54 1019.9
20190319144656 34 265 4.0 10.0 0.00 0.00 0.00 55 1019.9
20190319143202 34 302 4.0 10.0 0.00 0.00 0.00 57 1020.0
20190319141645 34 309 2.0 10.0 0.00 0.00 0.00 59 1019.9
20190319140151 33 264 2.0 8.0 0.00 0.00 0.00 61 1019.9
20190319134649 33 278 3.0 8.0 0.00 0.00 0.00 64 1019.8
20190319133209 32 280 2.0 5.0 0.00 0.00 0.00 64 1019.8
20190319131642 32 345 1.0 3.0 0.00 0.00 0.00 68 1019.6
20190319130158 31 253 1.0 5.0 0.00 0.00 0.00 72 1019.5
20190319124600 30 256 0.0 5.0 0.00 0.00 0.00 72 1019.5
20190319123047 29 8 0.0 2.0 0.00 0.00 0.00 74 1019.4
20190319121605 28 281 0.0 3.0 0.00 0.00 0.00 77 1019.3
20190319120043 26 287 0.0 1.0 0.00 0.00 0.00 79 1019.3
20190319114549 25 274 0.0 0.0 0.00 0.00 0.00 81 1019.2
20190319113047 24 279 0.0 0.0 0.00 0.00 0.00 83 1019.0
20190319111559 23 298 0.0 0.0 0.00 0.00 0.00 84 1018.8
20190319110035 22 20 0.0 0.0 0.00 0.00 0.00 85 1018.5
20190319104517 22 19 0.0 0.0 0.00 0.00 0.00 85 1018.5
20190319103022 21 34 0.0 1.0 0.00 0.00 0.00 84 1018.4
20190319101522 22 26 0.0 1.0 0.00 0.00 0.00 84 1018.3
20190319100016 22 23 0.0 1.0 0.00 0.00 0.00 83 1018.2
20190319094512 23 1 0.0 1.0 0.00 0.00 0.00 82 1018.0
20190319093012 23 5 0.0 1.0 0.00 0.00 0.00 80 1017.8
20190319091514 23 44 0.0 2.0 0.00 0.00 0.00 79 1017.7
20190319090013 24 78 0.0 0.0 0.00 0.00 0.00 79 1017.6
20190319084539 24 65 0.0 1.0 0.00 0.00 0.00 77 1017.4
20190319083011 25 71 0.0 1.0 0.00 0.00 0.00 75 1017.4
20190319081508 25 294 0.0 1.0 0.00 0.00 0.00 75 1017.4
20190319080032 25 314 0.0 2.0 0.00 0.00 0.00 76 1017.3
20190319074500 23 260 0.0 3.0 0.00 0.00 0.00 79 1017.5
20190319073204 21 23 0.0 2.0 0.00 0.00 0.00 81 1017.5
20190319071700 22 279 0.0 0.0 0.00 0.00 0.00 81 1017.6
20190319070303 20 70 0.0 1.0 0.00 0.00 0.00 84 1017.7
20190319064637 20 46 0.0 0.0 0.00 0.00 0.00 84 1017.7
20190319063157 20 46 0.0 0.0 0.00 0.00 0.00 83 1017.6
20190319061655 20 55 0.0 0.0 0.00 0.00 0.00 82 1017.6
20190319060225 20 55 0.0 0.0 0.00 0.00 0.00 81 1017.4
20190319054643 20 56 0.0 0.0 0.00 0.00 0.00 82 1017.3
20190319053217 20 55 0.0 0.0 0.00 0.00 0.00 81 1017.3
20190319051624 20 56 0.0 0.0 0.00 0.00 0.00 79 1017.3
20190319050125 21 57 0.0 0.0 0.00 0.00 0.00 79 1017.4
20190319044731 21 56 0.0 1.0 0.00 0.00 0.00 79 1017.3
20190319043125 21 11 0.0 0.0 0.00 0.00 0.00 77 1017.2
20190319041634 22 278 0.0 0.0 0.00 0.00 0.00 76 1017.3
20190319040054 22 278 0.0 0.0 0.00 0.00 0.00 76 1017.1
20190319034626 22 278 0.0 0.0 0.00 0.00 0.00 75 1017.1
20190319033142 23 278 0.0 0.0 0.00 0.00 0.00 72 1017.2
20190319031631 23 278 0.0 0.0 0.00 0.00 0.00 73 1017.3
20190319030117 24 278 0.0 0.0 0.00 0.00 0.00 73 1017.3
20190319024638 23 278 0.0 0.0 0.00 0.00 0.00 69 1017.2
20190319023207 24 278 0.0 0.0 0.00 0.00 0.00 68 1017.1
20190319021623 24 278 0.0 0.0 0.00 0.00 0.00 67 1017.1
20190319020055 25 271 0.0 0.0 0.00 0.00 0.00 69 1017.1
20190319014610 26 269 0.0 0.0 0.00 0.00 0.00 64 1017.1
20190319013134 26 269 0.0 0.0 0.00 0.00 0.00 63 1016.8
20190319011641 27 266 0.0 0.0 0.00 0.00 0.00 62 1016.8
20190319010028 27 267 0.0 0.0 0.00 0.00 0.00 54 1016.6
20190319004546 28 267 0.0 0.0 0.00 0.00 0.00 51 1016.6
20190319003033 30 266 0.0 0.0 0.00 0.00 0.00 46 1016.4
20190319001610 32 347 0.0 1.0 0.00 0.00 0.00 41 1016.2
20190319000108 33 324 0.0 3.0 0.00 0.00 0.00 40 1016.0
20190318234539 34 283 1.0 7.0 0.00 0.00 0.00 38 1015.9
20190318233051 34 270 1.0 10.0 0.00 0.00 0.00 38 1015.6
20190318231520 35 15 0.0 8.0 0.00 0.00 0.00 38 1015.6
20190318230037 36 286 0.0 8.0 0.00 0.00 0.00 36 1015.3
20190318224518 36 314 3.0 12.0 0.00 0.00 0.00 34 1015.1
20190318223016 38 342 1.0 8.0 0.00 0.00 0.00 33 1014.8
20190318221517 38 265 0.0 12.0 0.00 0.00 0.00 33 1014.7
20190318220016 38 302 5.0 11.0 0.00 0.00 0.00 32 1014.6
20190318214514 38 274 3.0 15.0 0.00 0.00 0.00 32 1014.5
20190318213031 39 264 4.0 13.0 0.00 0.00 0.00 33 1014.3
20190318211512 38 329 3.0 13.0 0.00 0.00 0.00 32 1014.1
20190318210027 38 298 4.0 15.0 0.00 0.00 0.00 32 1014.0
20190318204516 39 256 5.0 12.0 0.00 0.00 0.00 32 1014.0
20190318203010 39 275 3.0 7.0 0.00 0.00 0.00 32 1013.8
20190318201533 40 329 5.0 9.0 0.00 0.00 0.00 31 1013.7
20190318200008 39 312 7.0 15.0 0.00 0.00 0.00 31 1013.7
20190318194508 39 281 5.0 17.0 0.00 0.00 0.00 32 1013.7
20190318193005 40 153 4.0 10.0 0.00 0.00 0.00 33 1013.7
20190318191515 39 314 4.0 10.0 0.00 0.00 0.00 32 1014.0
20190318190003 39 260 4.0 12.0 0.00 0.00 0.00 33 1013.9